QPF
0.00 0.00 0.00 0.00 0.00 0.00 0.00 0.00 0.00 0.00 0.00 0.00 0.00 0.00 0.00 0.00 0.00 0.00 0.00 0.00 0.00 0.00 0.00 0.00 0.00 0.00 0.01 0.01 0.01 0.01 0.00 0.00 0.00 0.00 0.00 0.01 0.01 0.01 0.00 0.00 0.00 0.00 0.00
0.00 0.00 0.00 0.00 0.00 0.00 0.00 0.00 0.00 0.00 0.00 0.00 0.00 0.00 0.00 0.00 0.00 0.00 0.00 0.00 0.00 0.00 0.00 0.00 0.00 0.00 0.01 0.02 0.02 0.03 0.02 0.01 0.01 0.00 0.01 0.01 0.01 0.01 0.01 0.01 0.01 0.00 0.00
0.00 0.00 0.00 0.00 0.00 0.00 0.00 0.00 0.00 0.00 0.00 0.00 0.00 0.00 0.00 0.00 0.00 0.00 0.00 0.00 0.00 0.00 0.00 0.00 0.00 0.00 0.00 0.01 0.02 0.03 0.04 0.04 0.03 0.02 0.02 0.01 0.01 0.01 0.02 0.03 0.03 0.02 0.01
0.00 0.00 0.00 0.00 0.00 0.00 0.00 0.00 0.00 0.00 0.00 0.00 0.00 0.00 0.00 0.00 0.00 0.00 0.00 0.00 0.00 0.00 0.00 0.00 0.00 0.00 0.00 0.00 0.01 0.02 0.03 0.04 0.04 0.05 0.05 0.05 0.04 0.03 0.03 0.04 0.05 0.05 0.04
0.00 0.00 0.00 0.00 0.00 0.00 0.00 0.00 0.00 0.00 0.00 0.00 0.00 0.00 0.00 0.00 0.00 0.00 0.00 0.00 0.00 0.00 0.00 0.00 0.00 0.00 0.00 0.00 0.00 0.01 0.02 0.03 0.05 0.06 0.07 0.08 0.09 0.09 0.09 0.08 0.08 0.07 0.07
0.00 0.00 0.00 0.00 0.00 0.00 0.00 0.00 0.00 0.00 0.00 0.00 0.00 0.00 0.00 0.00 0.00 0.00 0.00 0.00 0.00 0.00 0.00 0.00 0.00 0.00 0.00 0.01 0.01 0.02 0.02 0.03 0.04 0.06 0.08 0.09 0.11 0.13 0.14 0.15 0.14 0.13 0.12
0.00 0.00 0.00 0.00 0.00 0.00 0.00 0.00 0.00 0.00 0.00 0.00 0.00 0.00 0.00 0.00 0.00 0.00 0.00 0.00 0.00 0.00 0.00 0.00 0.00 0.00 0.01 0.01 0.02 0.02 0.02 0.03 0.04 0.05 0.07 0.10 0.13 0.16 0.19 0.20 0.21 0.20 0.19
0.00 0.00 0.00 0.00 0.00 0.00 0.00 0.00 0.00 0.00 0.00 0.00 0.00 0.00 0.00 0.00 0.00 0.00 0.00 0.00 0.00 0.00 0.00 0.00 0.00 0.00 0.01 0.01 0.01 0.01 0.01 0.01 0.02 0.04 0.08 0.11 0.14 0.17 0.21 0.24 0.26 0.26 0.26
0.00 0.00 0.00 0.00 0.00 0.00 0.00 0.00 0.00 0.00 0.00 0.00 0.00 0.00 0.00 0.00 0.00 0.00 0.00 0.00 0.00 0.00 0.00 0.00 0.00 0.00 0.00 0.00 0.00 0.00 0.01 0.02 0.02 0.04 0.06 0.08 0.11 0.13 0.17 0.21 0.24 0.27 0.29
0.00 0.00 0.00 0.00 0.00 0.00 0.00 0.00 0.00 0.00 0.00 0.00 0.00 0.00 0.00 0.00 0.00 0.00 0.00 0.00 0.00 0.00 0.00 0.00 0.00 0.00 0.00 0.00 0.00 0.00 0.01 0.01 0.02 0.03 0.04 0.06 0.08 0.11 0.14 0.18 0.22 0.26 0.29
0.00 0.00 0.00 0.00 0.00 0.00 0.00 0.00 0.00 0.00 0.00 0.00 0.00 0.00 0.00 0.00 0.00 0.00 0.00 0.00 0.00 0.00 0.00 0.00 0.00 0.00 0.00 0.00 0.00 0.00 0.00 0.00 0.01 0.01 0.02 0.03 0.05 0.08 0.11 0.15 0.19 0.24 0.29
0.00 0.00 0.00 0.00 0.00 0.00 0.00 0.00 0.00 0.00 0.00 0.00 0.00 0.00 0.00 0.00 0.00 0.00 0.00 0.00 0.00 0.00 0.00 0.00 0.00 0.00 0.00 0.00 0.00 0.00 0.00 0.00 0.00 0.00 0.00 0.00 0.01 0.02 0.03 0.05 0.08 0.13 0.18
0.00 0.00 0.00 0.00 0.00 0.00 0.00 0.00 0.00 0.00 0.00 0.00 0.00 0.00 0.00 0.00 0.00 0.00 0.00 0.00 0.00 0.00 0.00 0.00 0.00 0.00 0.00 0.00 0.00 0.00 0.00 0.00 0.00 0.00 0.00 0.00 0.00 0.01 0.01 0.01 0.02 0.04 0.07
0.00 0.00 0.00 0.00 0.00 0.00 0.00 0.00 0.00 0.00 0.00 0.00 0.00 0.00 0.00 0.00 0.00 0.00 0.00 0.00 0.00 0.00 0.00 0.00 0.00 0.00 0.00 0.00 0.00 0.00 0.00 0.00 0.00 0.00 0.00 0.00 0.00 0.00 0.00 0.00 0.00 0.01 0.02
0.00 0.00 0.00 0.00 0.00 0.00 0.00 0.00 0.00 0.00 0.00 0.00 0.00 0.00 0.00 0.00 0.00 0.00 0.00 0.00 0.00 0.00 0.00 0.00 0.00 0.00 0.00 0.00 0.00 0.00 0.00 0.00 0.00 0.00 0.00 0.00 0.00 0.00 0.00 0.00 0.00 0.00 0.01
0.00 0.00 0.00 0.00 0.00 0.00 0.00 0.00 0.00 0.00 0.00 0.00 0.00 0.00 0.00 0.00 0.00 0.00 0.00 0.00 0.00 0.00 0.00 0.00 0.00 0.00 0.00 0.00 0.00 0.00 0.00 0.00 0.00 0.00 0.00 0.00 0.00 0.00 0.00 0.00 0.00 0.00 0.00
0.00 0.00 0.00 0.00 0.00 0.00 0.00 0.00 0.00 0.00 0.00 0.00 0.00 0.00 0.00 0.00 0.00 0.00 0.00 0.00 0.00 0.00 0.00 0.00 0.00 0.00 0.00 0.00 0.00 0.00 0.00 0.00 0.00 0.00 0.00 0.00 0.00 0.00 0.00 0.01 0.01 0.01 0.01
0.00 0.00 0.00 0.00 0.00 0.00 0.00 0.00 0.00 0.00 0.00 0.00 0.00 0.00 0.00 0.00 0.00 0.00 0.00 0.00 0.00 0.00 0.01 0.01 0.01 0.00 0.00 0.00 0.00 0.00 0.00 0.00 0.00 0.00 0.00 0.00 0.01 0.01 0.01 0.01 0.02 0.02 0.02
0.00 0.00 0.00 0.00 0.00 0.00 0.00 0.00 0.00 0.00 0.00 0.00 0.00 0.00 0.00 0.00 0.00 0.00 0.00 0.00 0.00 0.01 0.02 0.02 0.01 0.01 0.00 0.00 0.00 0.00 0.00 0.00 0.00 0.00 0.00 0.00 0.01 0.01 0.02 0.02 0.02 0.02 0.02
0.00 0.00 0.00 0.00 0.00 0.00 0.00 0.00 0.00 0.00 0.00 0.00 0.00 0.00 0.00 0.00 0.00 0.00 0.00 0.00 0.01 0.02 0.02 0.02 0.03 0.02 0.01 0.01 0.01 0.01 0.00 0.00 0.00 0.00 0.00 0.01 0.01 0.02 0.02 0.02 0.02 0.02 0.02
0.00 0.00 0.00 0.00 0.00 0.00 0.00 0.00 0.00 0.00 0.00 0.00 0.00 0.00 0.00 0.00 0.00 0.00 0.01 0.02 0.02 0.03 0.03 0.04 0.04 0.04 0.03 0.02 0.01 0.00 0.01 0.01 0.00 0.00 0.01 0.01 0.01 0.01 0.01 0.01 0.01 0.01 0.01
0.00 0.00 0.00 0.00 0.00 0.00 0.00 0.00 0.00 0.00 0.00 0.00 0.00 0.00 0.00 0.00 0.00 0.00 0.01 0.02 0.03 0.04 0.05 0.07 0.08 0.06 0.03 0.01 0.00 0.01 0.01 0.02 0.01 0.00 0.01 0.01 0.00 0.00 0.00 0.00 0.01 0.02 0.03
0.00 0.00 0.00 0.00 0.00 0.00 0.00 0.00 0.00 0.00 0.00 0.00 0.00 0.00 0.00 0.00 0.00 0.00 0.01 0.02 0.03 0.04 0.05 0.06 0.05 0.02 0.01 0.01 0.01 0.02 0.03 0.03 0.02 0.01 0.02 0.02 0.01 0.02 0.01 0.01 0.02 0.03 0.04
0.00 0.00 0.00 0.00 0.00 0.00 0.00 0.00 0.00 0.00 0.00 0.00 0.00 0.00 0.00 0.00 0.00 0.01 0.02 0.03 0.02 0.02 0.02 0.01 0.01 0.01 0.01 0.01 0.02 0.03 0.04 0.03 0.02 0.01 0.03 0.06 0.03 0.02 0.01 0.01 0.01 0.02 0.04
0.00 0.00 0.00 0.00 0.00 0.00 0.00 0.00 0.00 0.00 0.00 0.00 0.00 0.00 0.00 0.01 0.01 0.03 0.04 0.03 0.02 0.01 0.00 0.01 0.01 0.01 0.01 0.01 0.01 0.02 0.04 0.07 0.04 0.01 0.02 0.05 0.03 0.02 0.01 0.01 0.01 0.04 0.07
0.00 0.00 0.00 0.00 0.00 0.00 0.00 0.00 0.00 0.00 0.00 0.00 0.00 0.00 0.01 0.01 0.02 0.04 0.04 0.03 0.02 0.01 0.01 0.01 0.01 0.00 0.00 0.00 0.01 0.02 0.07 0.13 0.08 0.04 0.01 0.04 0.05 0.05 0.05 0.01 0.02 0.03 0.04
MSLP
1011.66 1011.78 1011.87 1011.92 1011.95 1011.97 1011.96 1011.94 1011.89 1011.80 1011.67 1011.49 1011.27 1011.02 1010.75 1010.47 1010.21 1009.97 1009.77 1009.60 1009.46 1009.35 1009.25 1009.16 1009.07 1008.98 1008.89 1008.78 1008.68 1008.57 1008.46 1008.37 1008.30 1008.26 1008.25 1008.28 1008.34 1008.42 1008.53 1008.65 1008.78 1008.90 1009.04
1011.62 1011.74 1011.84 1011.91 1011.96 1011.99 1012.00 1011.97 1011.91 1011.80 1011.63 1011.42 1011.17 1010.88 1010.57 1010.25 1009.95 1009.67 1009.42 1009.20 1009.01 1008.86 1008.72 1008.60 1008.48 1008.36 1008.24 1008.10 1007.95 1007.79 1007.64 1007.50 1007.38 1007.29 1007.24 1007.24 1007.27 1007.34 1007.42 1007.51 1007.61 1007.71 1007.81
1011.76 1011.87 1011.97 1012.05 1012.12 1012.16 1012.18 1012.15 1012.07 1011.93 1011.74 1011.49 1011.20 1010.87 1010.53 1010.17 1009.83 1009.50 1009.20 1008.93 1008.69 1008.48 1008.30 1008.13 1007.98 1007.83 1007.67 1007.49 1007.28 1007.07 1006.85 1006.63 1006.44 1006.29 1006.19 1006.14 1006.13 1006.16 1006.22 1006.28 1006.34 1006.40 1006.48
1012.07 1012.17 1012.27 1012.36 1012.43 1012.49 1012.50 1012.47 1012.37 1012.21 1011.98 1011.71 1011.38 1011.02 1010.64 1010.25 1009.87 1009.49 1009.13 1008.80 1008.51 1008.24 1008.01 1007.81 1007.61 1007.42 1007.22 1006.99 1006.73 1006.44 1006.14 1005.85 1005.57 1005.34 1005.16 1005.05 1004.98 1004.97 1004.98 1005.00 1005.02 1005.05 1005.08
1012.53 1012.61 1012.70 1012.79 1012.88 1012.93 1012.95 1012.91 1012.80 1012.62 1012.37 1012.06 1011.71 1011.33 1010.92 1010.50 1010.07 1009.64 1009.23 1008.85 1008.49 1008.17 1007.89 1007.63 1007.40 1007.16 1006.91 1006.63 1006.31 1005.96 1005.57 1005.19 1004.82 1004.49 1004.23 1004.04 1003.91 1003.83 1003.79 1003.76 1003.74 1003.71 1003.68
1013.06 1013.13 1013.22 1013.31 1013.40 1013.46 1013.48 1013.43 1013.31 1013.12 1012.86 1012.54 1012.17 1011.76 1011.33 1010.88 1010.41 1009.95 1009.48 1009.04 1008.62 1008.24 1007.90 1007.60 1007.32 1007.05 1006.76 1006.43 1006.05 1005.63 1005.17 1004.69 1004.23 1003.81 1003.46 1003.18 1002.98 1002.84 1002.73 1002.65 1002.56 1002.47 1002.37
1013.61 1013.67 1013.75 1013.85 1013.94 1014.01 1014.03 1013.99 1013.87 1013.67 1013.40 1013.08 1012.70 1012.29 1011.84 1011.36 1010.87 1010.35 1009.84 1009.34 1008.86 1008.42 1008.03 1007.67 1007.35 1007.04 1006.71 1006.35 1005.92 1005.45 1004.92 1004.37 1003.83 1003.33 1002.89 1002.53 1002.25 1002.04 1001.87 1001.72 1001.56 1001.39 1001.21
1014.12 1014.17 1014.25 1014.35 1014.45 1014.52 1014.55 1014.51 1014.40 1014.21 1013.95 1013.63 1013.25 1012.84 1012.38 1011.89 1011.36 1010.81 1010.25 1009.69 1009.15 1008.65 1008.20 1007.81 1007.44 1007.10 1006.74 1006.34 1005.89 1005.37 1004.80 1004.20 1003.60 1003.03 1002.52 1002.09 1001.74 1001.46 1001.22 1001.00 1000.78 1000.53 1000.26
1014.57 1014.61 1014.68 1014.78 1014.88 1014.96 1014.99 1014.96 1014.86 1014.68 1014.43 1014.12 1013.75 1013.34 1012.88 1012.38 1011.83 1011.25 1010.64 1010.03 1009.44 1008.89 1008.39 1007.94 1007.54 1007.16 1006.78 1006.36 1005.89 1005.36 1004.76 1004.13 1003.49 1002.88 1002.32 1001.83 1001.42 1001.08 1000.78 1000.50 1000.20 999.88 999.52
1014.94 1014.97 1015.04 1015.13 1015.22 1015.29 1015.32 1015.29 1015.20 1015.03 1014.79 1014.50 1014.14 1013.74 1013.29 1012.77 1012.21 1011.60 1010.96 1010.31 1009.67 1009.07 1008.52 1008.03 1007.59 1007.18 1006.77 1006.35 1005.87 1005.33 1004.74 1004.10 1003.45 1002.81 1002.22 1001.70 1001.24 1000.85 1000.49 1000.15 999.80 999.40 998.97
1015.25 1015.28 1015.33 1015.40 1015.47 1015.52 1015.54 1015.50 1015.40 1015.24 1015.01 1014.73 1014.39 1013.99 1013.54 1013.03 1012.46 1011.84 1011.17 1010.49 1009.81 1009.17 1008.57 1008.04 1007.56 1007.13 1006.70 1006.26 1005.78 1005.25 1004.67 1004.04 1003.39 1002.75 1002.15 1001.60 1001.11 1000.67 1000.27 999.88 999.47 999.02 998.54
1015.54 1015.55 1015.57 1015.61 1015.65 1015.67 1015.66 1015.60 1015.48 1015.31 1015.08 1014.80 1014.47 1014.09 1013.65 1013.14 1012.57 1011.94 1011.26 1010.56 1009.86 1009.18 1008.55 1007.98 1007.46 1006.99 1006.54 1006.08 1005.60 1005.08 1004.51 1003.90 1003.27 1002.64 1002.03 1001.47 1000.95 1000.48 1000.03 999.59 999.13 998.64 998.12
1015.82 1015.81 1015.80 1015.79 1015.78 1015.76 1015.70 1015.60 1015.46 1015.27 1015.03 1014.75 1014.42 1014.04 1013.61 1013.11 1012.55 1011.92 1011.24 1010.53 1009.82 1009.12 1008.46 1007.85 1007.29 1006.78 1006.29 1005.81 1005.32 1004.80 1004.23 1003.64 1003.03 1002.41 1001.81 1001.23 1000.69 1000.18 999.69 999.20 998.70 998.18 997.62
1016.10 1016.06 1016.01 1015.95 1015.88 1015.80 1015.69 1015.54 1015.36 1015.14 1014.89 1014.60 1014.27 1013.90 1013.47 1012.98 1012.43 1011.81 1011.14 1010.43 1009.71 1008.99 1008.31 1007.66 1007.06 1006.51 1005.98 1005.46 1004.95 1004.41 1003.85 1003.26 1002.66 1002.05 1001.44 1000.85 1000.28 999.73 999.20 998.66 998.12 997.56 996.99
1016.37 1016.30 1016.20 1016.09 1015.96 1015.82 1015.65 1015.45 1015.23 1014.98 1014.71 1014.40 1014.07 1013.69 1013.27 1012.79 1012.25 1011.64 1010.98 1010.28 1009.56 1008.83 1008.12 1007.44 1006.79 1006.19 1005.61 1005.05 1004.50 1003.94 1003.36 1002.77 1002.16 1001.55 1000.93 1000.32 999.72 999.13 998.54 997.96 997.37 996.78 996.19
1016.60 1016.50 1016.36 1016.20 1016.01 1015.81 1015.58 1015.34 1015.08 1014.80 1014.51 1014.19 1013.85 1013.47 1013.05 1012.57 1012.03 1011.43 1010.78 1010.09 1009.36 1008.63 1007.89 1007.18 1006.49 1005.84 1005.20 1004.59 1003.99 1003.39 1002.79 1002.18 1001.56 1000.93 1000.29 999.66 999.02 998.38 997.74 997.10 996.47 995.84 995.23
1016.77 1016.64 1016.46 1016.25 1016.01 1015.76 1015.49 1015.21 1014.92 1014.62 1014.31 1013.99 1013.63 1013.24 1012.81 1012.33 1011.80 1011.20 1010.55 1009.85 1009.12 1008.38 1007.62 1006.88 1006.15 1005.45 1004.76 1004.09 1003.44 1002.79 1002.15 1001.51 1000.86 1000.21 999.55 998.89 998.21 997.53 996.84 996.15 995.47 994.81 994.17
1016.86 1016.70 1016.48 1016.23 1015.96 1015.67 1015.37 1015.06 1014.75 1014.44 1014.12 1013.78 1013.42 1013.02 1012.57 1012.08 1011.53 1010.92 1010.26 1009.56 1008.82 1008.06 1007.30 1006.53 1005.77 1005.02 1004.28 1003.56 1002.86 1002.16 1001.47 1000.79 1000.11 999.43 998.75 998.05 997.34 996.62 995.90 995.17 994.45 993.75 993.08
1016.87 1016.67 1016.43 1016.14 1015.84 1015.52 1015.20 1014.88 1014.56 1014.24 1013.91 1013.56 1013.18 1012.77 1012.30 1011.78 1011.21 1010.58 1009.90 1009.19 1008.44 1007.67 1006.89 1006.11 1005.32 1004.54 1003.76 1003.00 1002.25 1001.50 1000.77 1000.05 999.34 998.62 997.91 997.19 996.45 995.71 994.96 994.20 993.45 992.73 992.04
1016.81 1016.58 1016.30 1015.98 1015.65 1015.31 1014.97 1014.64 1014.32 1013.99 1013.66 1013.30 1012.90 1012.46 1011.97 1011.42 1010.81 1010.15 1009.45 1008.72 1007.96 1007.19 1006.40 1005.61 1004.81 1004.01 1003.21 1002.41 1001.62 1000.83 1000.06 999.30 998.55 997.80 997.06 996.32 995.57 994.81 994.05 993.28 992.52 991.78 991.07
1016.70 1016.43 1016.12 1015.77 1015.41 1015.05 1014.70 1014.36 1014.03 1013.70 1013.35 1012.97 1012.55 1012.08 1011.55 1010.96 1010.32 1009.63 1008.90 1008.15 1007.39 1006.61 1005.83 1005.04 1004.24 1003.44 1002.62 1001.80 1000.98 1000.15 999.34 998.54 997.76 996.98 996.22 995.47 994.71 993.95 993.19 992.42 991.65 990.90 990.18
1016.57 1016.26 1015.91 1015.54 1015.15 1014.77 1014.40 1014.04 1013.69 1013.34 1012.98 1012.58 1012.12 1011.62 1011.05 1010.42 1009.73 1009.01 1008.26 1007.50 1006.73 1005.97 1005.20 1004.42 1003.63 1002.83 1002.01 1001.18 1000.33 999.48 998.63 997.79 996.98 996.18 995.40 994.63 993.87 993.12 992.36 991.59 990.82 990.07 989.33
1016.43 1016.09 1015.71 1015.30 1014.89 1014.48 1014.08 1013.71 1013.33 1012.96 1012.56 1012.12 1011.63 1011.08 1010.46 1009.79 1009.08 1008.33 1007.56 1006.80 1006.03 1005.28 1004.53 1003.78 1003.01 1002.22 1001.40 1000.56 999.69 998.81 997.93 997.06 996.20 995.38 994.58 993.80 993.04 992.29 991.53 990.77 990.00 989.22 988.46
1016.30 1015.93 1015.52 1015.08 1014.64 1014.21 1013.78 1013.37 1012.97 1012.55 1012.11 1011.63 1011.09 1010.49 1009.84 1009.13 1008.38 1007.61 1006.84 1006.08 1005.33 1004.59 1003.87 1003.13 1002.39 1001.61 1000.80 999.94 999.06 998.15 997.24 996.33 995.45 994.59 993.77 992.98 992.21 991.46 990.70 989.92 989.13 988.33 987.53
1016.17 1015.78 1015.35 1014.89 1014.42 1013.96 1013.51 1013.06 1012.61 1012.15 1011.66 1011.13 1010.55 1009.90 1009.20 1008.46 1007.69 1006.91 1006.14 1005.38 1004.65 1003.94 1003.23 1002.52 1001.79 1001.02 1000.20 999.34 998.43 997.50 996.55 995.61 994.70 993.82 992.98 992.17 991.39 990.62 989.84 989.04 988.22 987.37 986.51
1016.03 1015.63 1015.19 1014.71 1014.23 1013.75 1013.26 1012.78 1012.29 1011.78 1011.24 1010.65 1010.02 1009.33 1008.60 1007.83 1007.05 1006.26 1005.50 1004.75 1004.04 1003.34 1002.66 1001.96 1001.23 1000.46 999.63 998.75 997.82 996.86 995.88 994.91 993.97 993.07 992.20 991.38 990.58 989.78 988.98 988.14 987.27 986.36 985.43
Thickness
5699 5697 5695 5693 5691 5689 5687 5685 5683 5682 5682 5681 5681 5680 5679 5678 5679 5679 5679 5680 5679 5677 5675 5674 5673 5672 5671 5670 5670 5669 5668 5667 5666 5664 5663 5662 5661 5660 5658 5656 5653 5651 5649
5694 5691 5688 5686 5684 5682 5680 5678 5676 5674 5673 5673 5672 5672 5671 5672 5672 5673 5672 5673 5673 5672 5671 5669 5668 5666 5665 5665 5664 5664 5663 5663 5662 5660 5659 5658 5656 5655 5654 5652 5650 5648 5646
5688 5685 5681 5677 5675 5673 5671 5669 5667 5666 5664 5664 5664 5664 5664 5664 5665 5665 5665 5666 5666 5666 5665 5663 5661 5660 5658 5657 5657 5656 5656 5655 5655 5654 5654 5653 5651 5650 5649 5648 5647 5645 5643
5681 5677 5672 5668 5666 5663 5660 5658 5656 5654 5653 5652 5653 5654 5655 5656 5657 5657 5658 5658 5658 5657 5656 5654 5653 5651 5650 5648 5647 5647 5647 5646 5646 5645 5644 5644 5643 5643 5642 5642 5642 5641 5640
5670 5666 5661 5657 5655 5652 5648 5646 5644 5642 5641 5641 5643 5644 5645 5646 5647 5647 5647 5646 5645 5643 5642 5640 5638 5637 5637 5635 5634 5634 5634 5633 5633 5632 5632 5632 5632 5632 5632 5633 5633 5634 5635
5658 5655 5650 5646 5643 5640 5636 5634 5631 5630 5629 5629 5631 5633 5634 5637 5636 5634 5633 5632 5631 5629 5627 5625 5622 5620 5619 5618 5617 5617 5616 5616 5615 5615 5615 5616 5618 5619 5620 5622 5623 5624 5626
5646 5642 5638 5634 5631 5628 5624 5622 5620 5618 5616 5616 5616 5618 5623 5626 5624 5621 5618 5615 5613 5612 5609 5606 5603 5601 5599 5598 5596 5596 5596 5597 5596 5596 5597 5597 5599 5600 5603 5605 5608 5611 5614
5634 5630 5626 5622 5619 5616 5612 5609 5606 5604 5602 5600 5597 5598 5602 5608 5609 5603 5601 5599 5596 5594 5591 5588 5585 5582 5580 5577 5575 5573 5572 5573 5575 5575 5575 5574 5575 5577 5580 5583 5587 5591 5596
5622 5619 5615 5611 5607 5603 5599 5596 5593 5590 5586 5585 5581 5576 5572 5574 5581 5589 5586 5582 5580 5575 5571 5568 5566 5563 5559 5556 5553 5550 5549 5548 5549 5549 5550 5550 5550 5550 5551 5554 5559 5564 5570
5612 5608 5604 5600 5596 5591 5587 5583 5580 5576 5572 5568 5566 5561 5553 5551 5550 5559 5563 5561 5557 5554 5550 5547 5543 5538 5534 5530 5527 5524 5522 5520 5519 5519 5519 5519 5519 5519 5521 5523 5526 5531 5538
5601 5597 5593 5589 5585 5580 5575 5571 5567 5562 5557 5552 5547 5543 5540 5535 5530 5529 5537 5539 5535 5530 5526 5521 5516 5511 5506 5500 5496 5492 5489 5486 5484 5482 5482 5481 5482 5483 5485 5488 5492 5497 5503
5590 5586 5583 5579 5574 5569 5564 5559 5554 5548 5543 5537 5531 5525 5519 5514 5509 5506 5510 5517 5517 5513 5505 5497 5489 5483 5475 5467 5461 5456 5451 5448 5445 5443 5442 5443 5444 5446 5447 5450 5456 5463 5471
5578 5574 5571 5567 5563 5558 5552 5547 5540 5534 5529 5522 5515 5509 5502 5495 5489 5484 5483 5488 5494 5496 5487 5479 5466 5456 5445 5435 5427 5420 5415 5411 5407 5405 5405 5407 5409 5410 5411 5415 5422 5430 5439
5568 5564 5560 5555 5550 5545 5539 5533 5526 5520 5513 5506 5500 5492 5485 5479 5472 5465 5458 5454 5461 5471 5468 5458 5446 5432 5418 5405 5394 5386 5380 5377 5374 5373 5373 5374 5376 5379 5381 5386 5393 5402 5412
5558 5553 5548 5542 5537 5531 5525 5518 5511 5504 5497 5490 5482 5475 5469 5463 5456 5447 5437 5425 5417 5424 5440 5434 5420 5408 5392 5378 5366 5355 5350 5347 5346 5346 5346 5347 5350 5354 5358 5363 5370 5379 5388
5546 5541 5535 5529 5523 5516 5509 5502 5495 5488 5480 5473 5466 5460 5453 5446 5439 5429 5418 5405 5390 5378 5387 5399 5389 5379 5368 5356 5344 5333 5325 5322 5323 5323 5323 5325 5328 5333 5339 5345 5351 5359 5368
5533 5527 5521 5514 5508 5501 5494 5487 5479 5472 5465 5457 5449 5442 5436 5427 5419 5408 5396 5383 5368 5351 5343 5357 5354 5347 5341 5334 5329 5319 5310 5305 5304 5304 5304 5306 5310 5316 5322 5329 5335 5342 5351
5519 5513 5506 5499 5492 5485 5478 5470 5463 5456 5447 5439 5430 5422 5415 5406 5395 5383 5371 5358 5344 5331 5317 5318 5327 5321 5318 5312 5308 5304 5299 5293 5289 5288 5288 5290 5294 5299 5304 5311 5318 5325 5334
5505 5498 5491 5483 5476 5469 5462 5455 5447 5439 5429 5419 5409 5400 5391 5380 5371 5359 5346 5334 5323 5314 5303 5296 5301 5300 5297 5292 5288 5288 5285 5281 5277 5273 5273 5275 5277 5280 5286 5293 5300 5308 5317
5491 5483 5476 5468 5461 5454 5447 5440 5433 5423 5413 5401 5389 5377 5366 5355 5345 5334 5325 5315 5305 5298 5290 5283 5281 5281 5279 5277 5271 5269 5272 5270 5267 5261 5260 5261 5262 5266 5271 5276 5283 5291 5299
5477 5469 5462 5455 5447 5439 5432 5425 5417 5407 5395 5382 5369 5356 5344 5333 5323 5314 5306 5298 5289 5281 5273 5268 5265 5264 5264 5261 5256 5254 5255 5258 5260 5250 5250 5255 5252 5256 5260 5263 5268 5276 5285
5464 5456 5449 5442 5433 5425 5417 5409 5399 5388 5374 5360 5349 5338 5326 5316 5307 5300 5292 5284 5276 5265 5256 5252 5251 5249 5249 5246 5244 5243 5242 5243 5252 5248 5242 5251 5247 5252 5255 5257 5262 5268 5275
5451 5444 5436 5429 5420 5410 5401 5391 5380 5368 5353 5338 5326 5317 5309 5300 5290 5284 5280 5275 5266 5256 5246 5240 5239 5238 5237 5237 5235 5237 5237 5237 5241 5242 5239 5250 5250 5251 5254 5256 5259 5263 5269
5438 5431 5423 5415 5405 5394 5383 5372 5360 5348 5333 5319 5306 5296 5290 5285 5277 5270 5267 5262 5255 5248 5240 5237 5233 5232 5231 5231 5230 5231 5233 5236 5240 5239 5238 5246 5252 5252 5256 5257 5258 5263 5269
5425 5417 5409 5400 5389 5378 5365 5352 5339 5327 5315 5304 5293 5284 5275 5270 5265 5258 5252 5248 5246 5243 5239 5235 5232 5230 5230 5229 5227 5228 5230 5232 5241 5243 5241 5243 5251 5255 5258 5261 5263 5268 5274
5412 5404 5395 5383 5372 5360 5347 5333 5318 5305 5297 5291 5284 5275 5266 5258 5252 5247 5240 5237 5238 5238 5237 5235 5232 5229 5228 5227 5227 5226 5225 5229 5237 5243 5245 5245 5252 5255 5266 5271 5274 5275 5280